QPF
0.00 0.00 0.00 0.00 0.00 0.00 0.00 0.01 0.00 0.00 0.00 0.00 0.00 0.00 0.00 0.00 0.00 0.00 0.00 0.00 0.00 0.00 0.00 0.00 0.00 0.00 0.00 0.00 0.00 0.00 0.00 0.00 0.00 0.00 0.00 0.00 0.01 0.01 0.01 0.01 0.01 0.01 0.00
0.00 0.00 0.00 0.00 0.00 0.00 0.00 0.00 0.00 0.00 0.00 0.00 0.00 0.00 0.00 0.00 0.00 0.00 0.00 0.00 0.00 0.00 0.00 0.00 0.00 0.00 0.00 0.00 0.00 0.00 0.00 0.01 0.01 0.01 0.00 0.00 0.01 0.01 0.02 0.02 0.01 0.01 0.01
0.00 0.00 0.00 0.00 0.00 0.00 0.00 0.00 0.00 0.00 0.00 0.00 0.00 0.00 0.00 0.00 0.00 0.00 0.00 0.00 0.00 0.00 0.00 0.00 0.00 0.00 0.00 0.00 0.01 0.01 0.01 0.01 0.01 0.02 0.01 0.01 0.01 0.01 0.02 0.02 0.02 0.02 0.01
0.00 0.00 0.00 0.00 0.00 0.00 0.00 0.00 0.00 0.00 0.00 0.00 0.00 0.00 0.00 0.00 0.00 0.00 0.00 0.00 0.00 0.00 0.00 0.00 0.00 0.00 0.01 0.01 0.01 0.02 0.03 0.03 0.03 0.03 0.03 0.02 0.02 0.02 0.03 0.03 0.02 0.02 0.02
0.00 0.00 0.00 0.00 0.01 0.01 0.01 0.01 0.00 0.00 0.00 0.00 0.00 0.00 0.00 0.00 0.00 0.00 0.00 0.00 0.00 0.00 0.00 0.00 0.00 0.00 0.00 0.01 0.02 0.03 0.05 0.05 0.05 0.05 0.04 0.04 0.03 0.03 0.04 0.04 0.03 0.02 0.02
0.00 0.01 0.01 0.01 0.01 0.01 0.01 0.01 0.00 0.00 0.00 0.00 0.00 0.00 0.00 0.00 0.00 0.00 0.00 0.00 0.00 0.00 0.00 0.00 0.00 0.00 0.00 0.00 0.01 0.01 0.03 0.04 0.05 0.05 0.05 0.05 0.04 0.05 0.05 0.04 0.04 0.04 0.02
0.02 0.02 0.02 0.02 0.01 0.01 0.01 0.00 0.00 0.00 0.00 0.00 0.00 0.00 0.00 0.00 0.00 0.00 0.00 0.00 0.00 0.01 0.01 0.01 0.01 0.00 0.01 0.02 0.01 0.01 0.01 0.02 0.03 0.06 0.06 0.06 0.06 0.06 0.06 0.05 0.05 0.05 0.04
0.03 0.02 0.02 0.01 0.01 0.01 0.00 0.00 0.00 0.00 0.00 0.00 0.00 0.00 0.00 0.00 0.00 0.00 0.00 0.00 0.01 0.01 0.01 0.01 0.01 0.02 0.02 0.01 0.01 0.01 0.02 0.03 0.03 0.04 0.06 0.05 0.05 0.05 0.05 0.06 0.05 0.05 0.03
0.02 0.01 0.01 0.01 0.01 0.00 0.00 0.00 0.00 0.00 0.00 0.00 0.00 0.00 0.01 0.01 0.00 0.00 0.00 0.00 0.01 0.01 0.01 0.01 0.01 0.02 0.01 0.00 0.01 0.02 0.02 0.03 0.01 0.01 0.02 0.02 0.03 0.03 0.04 0.05 0.06 0.05 0.04
0.01 0.01 0.01 0.01 0.00 0.00 0.00 0.00 0.00 0.00 0.00 0.00 0.00 0.00 0.01 0.01 0.00 0.00 0.00 0.00 0.01 0.00 0.01 0.01 0.01 0.01 0.00 0.00 0.01 0.03 0.03 0.03 0.02 0.02 0.03 0.04 0.05 0.05 0.04 0.05 0.07 0.06 0.05
0.01 0.00 0.01 0.00 0.00 0.00 0.00 0.00 0.00 0.00 0.00 0.00 0.00 0.00 0.01 0.01 0.00 0.00 0.00 0.01 0.01 0.01 0.01 0.01 0.02 0.00 0.00 0.00 0.00 0.02 0.03 0.01 0.02 0.04 0.05 0.05 0.04 0.04 0.04 0.05 0.05 0.05 0.06
0.01 0.01 0.01 0.01 0.00 0.00 0.00 0.00 0.00 0.01 0.01 0.01 0.01 0.01 0.01 0.01 0.01 0.00 0.00 0.00 0.00 0.01 0.02 0.02 0.01 0.00 0.00 0.00 0.01 0.01 0.01 0.02 0.04 0.05 0.05 0.04 0.04 0.04 0.04 0.04 0.04 0.04 0.04
0.01 0.01 0.01 0.01 0.00 0.00 0.00 0.01 0.01 0.01 0.01 0.01 0.01 0.01 0.01 0.01 0.01 0.00 0.00 0.00 0.00 0.01 0.01 0.01 0.00 0.00 0.01 0.02 0.01 0.02 0.03 0.05 0.05 0.05 0.05 0.04 0.04 0.04 0.03 0.03 0.03 0.03 0.03
0.02 0.01 0.01 0.01 0.01 0.01 0.01 0.01 0.01 0.01 0.01 0.01 0.01 0.01 0.01 0.01 0.01 0.00 0.00 0.00 0.00 0.00 0.01 0.01 0.01 0.01 0.01 0.02 0.02 0.03 0.05 0.05 0.04 0.05 0.05 0.04 0.04 0.03 0.03 0.03 0.02 0.02 0.02
0.02 0.01 0.01 0.01 0.01 0.01 0.01 0.00 0.00 0.01 0.00 0.00 0.01 0.01 0.01 0.01 0.01 0.00 0.00 0.00 0.00 0.00 0.01 0.01 0.02 0.02 0.01 0.01 0.02 0.03 0.04 0.04 0.04 0.05 0.04 0.03 0.03 0.03 0.03 0.03 0.03 0.02 0.02
0.02 0.02 0.01 0.00 0.00 0.01 0.01 0.01 0.01 0.00 0.00 0.00 0.00 0.00 0.00 0.00 0.00 0.01 0.01 0.01 0.01 0.01 0.01 0.02 0.02 0.02 0.01 0.01 0.02 0.03 0.04 0.04 0.04 0.04 0.05 0.04 0.03 0.02 0.02 0.02 0.02 0.02 0.02
0.01 0.02 0.01 0.01 0.01 0.01 0.01 0.02 0.03 0.02 0.00 0.00 0.00 0.00 0.00 0.00 0.01 0.01 0.01 0.01 0.01 0.01 0.01 0.02 0.02 0.02 0.02 0.02 0.02 0.02 0.02 0.03 0.03 0.04 0.04 0.04 0.04 0.03 0.02 0.02 0.02 0.02 0.02
0.02 0.01 0.01 0.02 0.02 0.01 0.01 0.01 0.02 0.02 0.02 0.02 0.01 0.01 0.01 0.01 0.01 0.02 0.02 0.02 0.01 0.01 0.01 0.02 0.02 0.02 0.02 0.02 0.01 0.01 0.01 0.02 0.02 0.03 0.03 0.03 0.04 0.03 0.02 0.02 0.02 0.01 0.01
0.01 0.02 0.01 0.01 0.01 0.01 0.01 0.01 0.01 0.01 0.01 0.02 0.01 0.01 0.01 0.01 0.02 0.02 0.02 0.02 0.02 0.02 0.01 0.01 0.02 0.02 0.02 0.01 0.01 0.01 0.01 0.02 0.02 0.02 0.02 0.03 0.03 0.02 0.02 0.02 0.01 0.01 0.01
0.00 0.00 0.00 0.01 0.01 0.01 0.01 0.01 0.01 0.01 0.01 0.02 0.01 0.01 0.01 0.01 0.02 0.03 0.02 0.02 0.02 0.02 0.01 0.01 0.01 0.01 0.01 0.01 0.01 0.01 0.01 0.01 0.01 0.01 0.01 0.02 0.02 0.02 0.01 0.01 0.01 0.01 0.01
0.00 0.00 0.00 0.00 0.01 0.01 0.01 0.01 0.00 0.00 0.01 0.01 0.01 0.00 0.01 0.02 0.03 0.04 0.03 0.02 0.02 0.02 0.01 0.01 0.01 0.01 0.01 0.01 0.01 0.01 0.01 0.01 0.00 0.00 0.01 0.01 0.01 0.01 0.01 0.01 0.01 0.01 0.01
0.00 0.00 0.00 0.00 0.01 0.01 0.01 0.00 0.00 0.00 0.00 0.00 0.00 0.00 0.01 0.02 0.03 0.03 0.03 0.03 0.02 0.02 0.01 0.01 0.01 0.01 0.00 0.00 0.00 0.00 0.00 0.00 0.00 0.00 0.00 0.01 0.01 0.01 0.00 0.00 0.00 0.00 0.00
0.00 0.00 0.00 0.00 0.00 0.00 0.00 0.00 0.00 0.00 0.00 0.00 0.00 0.00 0.01 0.02 0.02 0.02 0.02 0.02 0.02 0.02 0.01 0.01 0.00 0.00 0.00 0.00 0.00 0.00 0.00 0.00 0.00 0.00 0.01 0.01 0.00 0.00 0.00 0.00 0.00 0.00 0.00
0.00 0.00 0.00 0.00 0.00 0.00 0.00 0.00 0.00 0.00 0.00 0.00 0.00 0.00 0.00 0.01 0.01 0.02 0.02 0.02 0.02 0.01 0.01 0.00 0.00 0.00 0.00 0.00 0.00 0.00 0.00 0.00 0.00 0.00 0.01 0.01 0.00 0.00 0.00 0.00 0.00 0.00 0.00
0.00 0.00 0.00 0.00 0.00 0.00 0.00 0.00 0.00 0.00 0.00 0.00 0.00 0.00 0.00 0.00 0.01 0.01 0.01 0.01 0.01 0.01 0.01 0.00 0.00 0.00 0.00 0.00 0.00 0.00 0.00 0.00 0.00 0.00 0.01 0.01 0.00 0.01 0.00 0.00 0.00 0.00 0.00
0.00 0.00 0.00 0.00 0.00 0.00 0.00 0.00 0.00 0.00 0.00 0.00 0.00 0.00 0.00 0.00 0.00 0.01 0.01 0.01 0.01 0.01 0.01 0.01 0.00 0.00 0.00 0.00 0.00 0.00 0.00 0.00 0.00 0.00 0.00 0.01 0.01 0.01 0.01 0.01 0.01 0.01 0.01
MSLP
1017.60 1018.10 1018.57 1018.96 1019.29 1019.56 1019.82 1020.08 1020.38 1020.71 1021.07 1021.42 1021.73 1021.97 1022.12 1022.18 1022.17 1022.10 1022.02 1021.94 1021.88 1021.83 1021.78 1021.69 1021.55 1021.32 1020.99 1020.57 1020.08 1019.55 1019.03 1018.54 1018.11 1017.74 1017.44 1017.19 1016.96 1016.73 1016.48 1016.22 1015.93 1015.64 1015.36
1018.52 1018.98 1019.40 1019.74 1020.00 1020.22 1020.42 1020.62 1020.86 1021.13 1021.42 1021.72 1021.98 1022.17 1022.29 1022.32 1022.28 1022.19 1022.08 1021.96 1021.86 1021.77 1021.69 1021.59 1021.44 1021.22 1020.93 1020.55 1020.12 1019.64 1019.16 1018.69 1018.26 1017.87 1017.52 1017.20 1016.88 1016.56 1016.21 1015.84 1015.45 1015.05 1014.67
1019.56 1019.97 1020.33 1020.60 1020.79 1020.93 1021.05 1021.18 1021.35 1021.55 1021.79 1022.03 1022.25 1022.42 1022.52 1022.53 1022.47 1022.36 1022.21 1022.06 1021.91 1021.78 1021.66 1021.52 1021.36 1021.15 1020.88 1020.55 1020.16 1019.73 1019.28 1018.83 1018.39 1017.98 1017.58 1017.20 1016.80 1016.39 1015.96 1015.49 1015.00 1014.51 1014.03
1020.67 1021.04 1021.32 1021.52 1021.63 1021.68 1021.72 1021.77 1021.86 1022.00 1022.19 1022.40 1022.59 1022.75 1022.83 1022.84 1022.77 1022.64 1022.46 1022.26 1022.06 1021.87 1021.69 1021.52 1021.33 1021.11 1020.85 1020.54 1020.18 1019.77 1019.35 1018.90 1018.46 1018.01 1017.57 1017.12 1016.66 1016.18 1015.67 1015.13 1014.57 1014.00 1013.44
1021.78 1022.10 1022.31 1022.43 1022.45 1022.42 1022.37 1022.35 1022.38 1022.48 1022.63 1022.81 1023.00 1023.15 1023.24 1023.24 1023.16 1023.00 1022.79 1022.54 1022.28 1022.03 1021.78 1021.55 1021.32 1021.07 1020.79 1020.48 1020.13 1019.73 1019.31 1018.85 1018.38 1017.90 1017.41 1016.92 1016.41 1015.88 1015.33 1014.75 1014.16 1013.55 1012.94
1022.77 1023.04 1023.19 1023.22 1023.17 1023.06 1022.95 1022.88 1022.86 1022.93 1023.06 1023.23 1023.42 1023.57 1023.67 1023.67 1023.58 1023.40 1023.14 1022.84 1022.52 1022.19 1021.87 1021.57 1021.28 1020.99 1020.68 1020.35 1019.98 1019.57 1019.12 1018.64 1018.14 1017.62 1017.09 1016.55 1016.02 1015.47 1014.91 1014.34 1013.75 1013.14 1012.52
1023.55 1023.76 1023.85 1023.82 1023.70 1023.54 1023.39 1023.28 1023.25 1023.30 1023.42 1023.60 1023.79 1023.95 1024.04 1024.05 1023.94 1023.73 1023.44 1023.08 1022.70 1022.30 1021.91 1021.54 1021.18 1020.84 1020.49 1020.11 1019.71 1019.27 1018.78 1018.27 1017.72 1017.17 1016.61 1016.05 1015.51 1014.98 1014.45 1013.91 1013.37 1012.80 1012.21
1024.05 1024.20 1024.23 1024.16 1024.00 1023.82 1023.65 1023.53 1023.49 1023.55 1023.67 1023.86 1024.05 1024.21 1024.31 1024.30 1024.18 1023.94 1023.61 1023.21 1022.76 1022.30 1021.85 1021.42 1021.00 1020.60 1020.20 1019.78 1019.33 1018.85 1018.32 1017.77 1017.19 1016.60 1016.02 1015.47 1014.94 1014.45 1013.97 1013.51 1013.03 1012.54 1012.01
1024.25 1024.36 1024.35 1024.25 1024.09 1023.91 1023.74 1023.64 1023.61 1023.67 1023.81 1024.00 1024.19 1024.35 1024.43 1024.40 1024.26 1024.00 1023.64 1023.20 1022.71 1022.20 1021.70 1021.22 1020.76 1020.31 1019.86 1019.40 1018.91 1018.38 1017.82 1017.23 1016.62 1016.01 1015.43 1014.89 1014.40 1013.95 1013.54 1013.16 1012.77 1012.37 1011.91
1024.22 1024.29 1024.27 1024.18 1024.03 1023.87 1023.73 1023.65 1023.65 1023.73 1023.87 1024.05 1024.23 1024.37 1024.44 1024.39 1024.22 1023.94 1023.55 1023.09 1022.57 1022.04 1021.51 1020.99 1020.49 1020.01 1019.52 1019.02 1018.50 1017.94 1017.34 1016.73 1016.10 1015.49 1014.92 1014.40 1013.94 1013.55 1013.21 1012.90 1012.59 1012.27 1011.89
1024.05 1024.11 1024.09 1024.02 1023.90 1023.78 1023.69 1023.65 1023.67 1023.76 1023.91 1024.08 1024.24 1024.36 1024.39 1024.32 1024.13 1023.83 1023.43 1022.95 1022.42 1021.87 1021.32 1020.78 1020.26 1019.75 1019.24 1018.71 1018.16 1017.58 1016.97 1016.34 1015.71 1015.11 1014.55 1014.06 1013.64 1013.29 1013.00 1012.74 1012.50 1012.23 1011.90
1023.83 1023.89 1023.90 1023.86 1023.79 1023.73 1023.68 1023.68 1023.73 1023.84 1023.98 1024.13 1024.27 1024.35 1024.36 1024.26 1024.05 1023.74 1023.33 1022.84 1022.31 1021.76 1021.20 1020.65 1020.11 1019.58 1019.05 1018.50 1017.93 1017.33 1016.72 1016.09 1015.48 1014.89 1014.36 1013.89 1013.50 1013.18 1012.92 1012.70 1012.48 1012.23 1011.92
1023.63 1023.71 1023.75 1023.76 1023.74 1023.73 1023.73 1023.77 1023.85 1023.96 1024.10 1024.23 1024.35 1024.40 1024.38 1024.26 1024.04 1023.72 1023.31 1022.83 1022.30 1021.74 1021.18 1020.62 1020.06 1019.50 1018.95 1018.38 1017.79 1017.19 1016.58 1015.97 1015.37 1014.81 1014.31 1013.87 1013.50 1013.20 1012.95 1012.73 1012.51 1012.26 1011.95
1023.49 1023.59 1023.65 1023.70 1023.74 1023.77 1023.82 1023.89 1023.99 1024.11 1024.24 1024.36 1024.45 1024.49 1024.45 1024.32 1024.10 1023.78 1023.37 1022.90 1022.38 1021.82 1021.24 1020.66 1020.08 1019.49 1018.91 1018.32 1017.72 1017.11 1016.51 1015.92 1015.35 1014.83 1014.36 1013.95 1013.60 1013.31 1013.07 1012.84 1012.60 1012.32 1011.99
1023.38 1023.49 1023.58 1023.65 1023.72 1023.79 1023.87 1023.96 1024.08 1024.21 1024.34 1024.46 1024.54 1024.57 1024.53 1024.41 1024.19 1023.88 1023.50 1023.03 1022.51 1021.95 1021.35 1020.75 1020.13 1019.51 1018.88 1018.26 1017.64 1017.04 1016.45 1015.88 1015.35 1014.87 1014.44 1014.07 1013.75 1013.47 1013.23 1012.98 1012.72 1012.43 1012.07
1023.26 1023.36 1023.45 1023.54 1023.62 1023.70 1023.80 1023.91 1024.04 1024.18 1024.32 1024.45 1024.54 1024.58 1024.56 1024.45 1024.26 1023.98 1023.61 1023.16 1022.64 1022.07 1021.46 1020.82 1020.16 1019.49 1018.83 1018.17 1017.54 1016.92 1016.35 1015.81 1015.32 1014.88 1014.50 1014.18 1013.89 1013.64 1013.41 1013.17 1012.90 1012.59 1012.23
1023.11 1023.18 1023.25 1023.32 1023.39 1023.48 1023.58 1023.71 1023.85 1024.00 1024.15 1024.29 1024.41 1024.47 1024.48 1024.41 1024.25 1024.00 1023.67 1023.24 1022.73 1022.15 1021.52 1020.85 1020.15 1019.44 1018.74 1018.05 1017.39 1016.77 1016.21 1015.69 1015.25 1014.86 1014.53 1014.25 1014.01 1013.80 1013.59 1013.37 1013.12 1012.83 1012.48
1022.91 1022.93 1022.96 1022.99 1023.04 1023.12 1023.22 1023.35 1023.49 1023.66 1023.83 1024.00 1024.14 1024.24 1024.29 1024.26 1024.15 1023.94 1023.64 1023.24 1022.75 1022.18 1021.54 1020.85 1020.12 1019.38 1018.64 1017.92 1017.25 1016.62 1016.06 1015.57 1015.16 1014.81 1014.53 1014.30 1014.10 1013.93 1013.76 1013.57 1013.36 1013.11 1012.81
1022.69 1022.65 1022.62 1022.61 1022.64 1022.69 1022.78 1022.91 1023.06 1023.24 1023.43 1023.62 1023.79 1023.93 1024.01 1024.03 1023.97 1023.81 1023.55 1023.19 1022.73 1022.17 1021.54 1020.85 1020.11 1019.35 1018.59 1017.86 1017.17 1016.54 1015.98 1015.50 1015.11 1014.79 1014.53 1014.34 1014.18 1014.04 1013.90 1013.76 1013.59 1013.39 1013.15
1022.50 1022.39 1022.32 1022.27 1022.26 1022.30 1022.38 1022.51 1022.66 1022.85 1023.05 1023.26 1023.45 1023.62 1023.74 1023.79 1023.77 1023.66 1023.44 1023.13 1022.71 1022.19 1021.58 1020.90 1020.17 1019.42 1018.66 1017.91 1017.22 1016.58 1016.02 1015.54 1015.14 1014.83 1014.58 1014.40 1014.25 1014.12 1014.01 1013.89 1013.76 1013.60 1013.42
1022.40 1022.24 1022.13 1022.06 1022.03 1022.06 1022.14 1022.26 1022.42 1022.60 1022.81 1023.02 1023.22 1023.40 1023.53 1023.61 1023.62 1023.55 1023.37 1023.10 1022.73 1022.25 1021.69 1021.05 1020.35 1019.62 1018.88 1018.14 1017.44 1016.80 1016.22 1015.73 1015.31 1014.97 1014.70 1014.49 1014.32 1014.19 1014.07 1013.96 1013.84 1013.71 1013.57
1022.42 1022.25 1022.12 1022.04 1022.02 1022.05 1022.12 1022.24 1022.40 1022.58 1022.78 1022.98 1023.17 1023.34 1023.47 1023.55 1023.58 1023.52 1023.39 1023.16 1022.83 1022.41 1021.90 1021.31 1020.66 1019.97 1019.25 1018.54 1017.84 1017.19 1016.59 1016.06 1015.60 1015.21 1014.89 1014.63 1014.42 1014.24 1014.09 1013.95 1013.81 1013.69 1013.56
1022.59 1022.43 1022.32 1022.25 1022.25 1022.29 1022.37 1022.50 1022.64 1022.81 1022.98 1023.16 1023.32 1023.46 1023.57 1023.64 1023.66 1023.61 1023.50 1023.30 1023.02 1022.65 1022.20 1021.67 1021.07 1020.43 1019.75 1019.06 1018.37 1017.71 1017.09 1016.52 1016.01 1015.56 1015.17 1014.83 1014.54 1014.30 1014.08 1013.89 1013.72 1013.56 1013.42
1022.89 1022.76 1022.68 1022.65 1022.67 1022.74 1022.84 1022.96 1023.10 1023.24 1023.38 1023.52 1023.64 1023.74 1023.81 1023.85 1023.84 1023.79 1023.69 1023.51 1023.27 1022.94 1022.54 1022.07 1021.53 1020.94 1020.30 1019.64 1018.97 1018.30 1017.66 1017.05 1016.48 1015.97 1015.50 1015.09 1014.72 1014.40 1014.11 1013.86 1013.63 1013.43 1013.26
1023.24 1023.17 1023.14 1023.16 1023.22 1023.31 1023.42 1023.54 1023.67 1023.78 1023.89 1023.98 1024.05 1024.11 1024.13 1024.14 1024.11 1024.04 1023.93 1023.77 1023.55 1023.26 1022.90 1022.48 1021.99 1021.44 1020.85 1020.21 1019.56 1018.90 1018.24 1017.61 1017.00 1016.43 1015.91 1015.42 1014.99 1014.60 1014.25 1013.94 1013.66 1013.42 1013.20
1023.62 1023.59 1023.62 1023.68 1023.78 1023.89 1024.02 1024.14 1024.25 1024.34 1024.41 1024.47 1024.50 1024.51 1024.50 1024.47 1024.41 1024.33 1024.21 1024.05 1023.84 1023.58 1023.25 1022.87 1022.42 1021.91 1021.35 1020.75 1020.12 1019.47 1018.82 1018.17 1017.55 1016.95 1016.39 1015.87 1015.39 1014.96 1014.56 1014.21 1013.90 1013.63 1013.39
Thickness
5641 5635 5630 5624 5618 5612 5606 5599 5592 5586 5580 5575 5570 5565 5559 5555 5550 5546 5543 5538 5534 5529 5524 5522 5517 5512 5509 5507 5505 5501 5498 5494 5493 5490 5483 5478 5472 5467 5463 5460 5459 5458 5458
5623 5617 5612 5606 5601 5595 5588 5582 5575 5569 5564 5558 5553 5548 5543 5538 5534 5530 5526 5521 5517 5513 5509 5505 5501 5498 5493 5490 5488 5485 5481 5476 5472 5471 5467 5463 5458 5454 5451 5449 5448 5447 5447
5606 5600 5594 5588 5583 5577 5570 5564 5558 5552 5546 5541 5536 5531 5526 5521 5517 5513 5508 5505 5501 5497 5493 5489 5486 5482 5479 5477 5472 5469 5466 5463 5458 5456 5455 5451 5447 5444 5442 5440 5440 5438 5438
5586 5581 5575 5569 5564 5558 5551 5545 5540 5535 5529 5524 5519 5514 5510 5506 5501 5496 5492 5489 5485 5482 5478 5475 5472 5469 5466 5462 5460 5456 5453 5450 5446 5443 5442 5441 5438 5436 5434 5433 5433 5432 5431
5567 5561 5554 5548 5543 5537 5532 5526 5521 5517 5512 5507 5503 5499 5494 5490 5483 5476 5474 5475 5471 5469 5467 5464 5461 5457 5451 5447 5445 5444 5441 5438 5436 5434 5434 5434 5432 5430 5428 5426 5425 5425 5426
5546 5540 5534 5529 5523 5518 5513 5509 5504 5500 5496 5492 5487 5483 5478 5473 5461 5456 5454 5458 5458 5457 5455 5453 5451 5448 5444 5437 5433 5430 5427 5427 5428 5427 5427 5427 5427 5425 5423 5420 5419 5418 5420
5526 5520 5515 5510 5506 5502 5498 5493 5489 5484 5480 5475 5471 5466 5462 5454 5446 5442 5441 5441 5446 5445 5443 5441 5440 5439 5433 5431 5427 5424 5424 5424 5422 5421 5422 5423 5422 5419 5416 5414 5412 5411 5413
5508 5503 5499 5496 5491 5487 5483 5477 5472 5468 5464 5460 5455 5451 5448 5442 5434 5430 5429 5433 5435 5434 5432 5431 5429 5428 5425 5419 5418 5420 5423 5425 5423 5422 5421 5419 5417 5414 5411 5409 5408 5409 5411
5494 5490 5486 5482 5477 5473 5467 5461 5457 5453 5449 5446 5441 5438 5434 5430 5422 5419 5416 5423 5425 5424 5423 5423 5421 5418 5414 5410 5412 5419 5422 5424 5424 5421 5419 5417 5415 5412 5408 5407 5408 5407 5408
5482 5477 5472 5467 5462 5457 5451 5447 5443 5439 5436 5433 5429 5425 5422 5418 5412 5408 5404 5412 5413 5413 5415 5415 5414 5411 5407 5407 5411 5417 5420 5422 5423 5423 5422 5420 5417 5414 5410 5407 5406 5404 5404
5469 5464 5458 5452 5447 5442 5438 5434 5430 5428 5424 5421 5418 5415 5411 5407 5404 5399 5397 5400 5402 5404 5407 5409 5410 5406 5406 5408 5410 5415 5417 5417 5421 5423 5423 5421 5418 5415 5412 5409 5407 5405 5403
5457 5451 5445 5439 5436 5431 5426 5422 5419 5417 5415 5412 5408 5406 5403 5399 5396 5393 5391 5390 5390 5396 5401 5404 5406 5405 5407 5410 5414 5416 5417 5419 5423 5424 5423 5421 5417 5414 5412 5411 5408 5406 5403
5445 5439 5433 5428 5423 5419 5416 5413 5411 5408 5406 5403 5400 5398 5395 5393 5391 5388 5388 5388 5390 5393 5398 5400 5402 5406 5410 5416 5417 5418 5420 5424 5424 5424 5423 5420 5417 5414 5412 5411 5409 5407 5405
5434 5428 5423 5418 5414 5409 5406 5405 5403 5400 5398 5395 5392 5390 5388 5387 5386 5384 5385 5388 5390 5394 5398 5402 5405 5410 5414 5417 5420 5423 5425 5425 5424 5423 5422 5421 5418 5416 5413 5411 5409 5407 5405
5425 5420 5415 5411 5407 5402 5399 5395 5393 5389 5385 5383 5384 5383 5382 5381 5378 5374 5377 5383 5386 5390 5394 5402 5407 5412 5416 5419 5422 5425 5426 5427 5426 5425 5423 5422 5419 5416 5413 5411 5409 5407 5405
5417 5411 5408 5404 5400 5398 5395 5392 5382 5380 5376 5374 5372 5371 5375 5372 5373 5375 5378 5381 5386 5390 5396 5403 5406 5409 5413 5417 5420 5424 5426 5427 5427 5426 5425 5422 5420 5417 5415 5413 5411 5408 5406
5408 5404 5401 5398 5395 5394 5392 5391 5387 5380 5375 5373 5371 5371 5371 5372 5374 5377 5381 5385 5389 5393 5399 5402 5405 5408 5412 5416 5420 5423 5426 5428 5428 5428 5427 5425 5422 5420 5417 5414 5412 5410 5408
5403 5398 5395 5394 5391 5391 5390 5389 5388 5387 5384 5380 5375 5373 5373 5375 5377 5380 5383 5388 5394 5397 5399 5402 5405 5409 5413 5417 5421 5424 5427 5430 5430 5430 5429 5428 5425 5422 5419 5416 5413 5411 5409
5401 5398 5394 5392 5391 5390 5389 5389 5388 5387 5385 5383 5382 5379 5377 5379 5380 5383 5386 5391 5394 5396 5399 5402 5406 5410 5415 5419 5424 5427 5430 5432 5434 5433 5432 5431 5429 5426 5422 5420 5416 5411 5411
5401 5392 5390 5393 5392 5391 5390 5389 5388 5387 5386 5385 5383 5381 5380 5382 5384 5386 5388 5391 5394 5397 5400 5404 5408 5413 5418 5423 5428 5431 5434 5437 5438 5438 5437 5435 5433 5430 5427 5424 5421 5418 5415
5405 5399 5389 5395 5394 5393 5392 5390 5389 5389 5388 5387 5385 5381 5378 5384 5385 5387 5390 5392 5395 5397 5401 5405 5410 5416 5421 5426 5429 5432 5436 5439 5439 5440 5440 5439 5438 5436 5432 5429 5427 5425 5423
5408 5404 5401 5399 5396 5394 5392 5392 5392 5391 5390 5389 5388 5388 5384 5388 5389 5391 5393 5394 5397 5399 5402 5406 5412 5418 5422 5426 5429 5433 5437 5440 5440 5441 5443 5443 5442 5440 5438 5436 5433 5431 5429
5410 5408 5404 5401 5399 5392 5396 5395 5394 5393 5392 5392 5392 5392 5392 5392 5393 5394 5395 5397 5399 5402 5406 5410 5414 5420 5424 5427 5431 5434 5438 5439 5439 5441 5444 5446 5445 5444 5442 5440 5438 5437 5435
5414 5411 5408 5406 5403 5402 5399 5398 5396 5395 5395 5395 5394 5394 5394 5394 5395 5396 5398 5400 5402 5406 5409 5413 5416 5420 5425 5430 5434 5437 5437 5437 5438 5443 5446 5447 5448 5447 5446 5445 5443 5442 5441
5418 5415 5412 5409 5407 5405 5402 5400 5399 5398 5397 5396 5396 5396 5396 5396 5397 5398 5399 5401 5404 5408 5411 5415 5418 5422 5427 5431 5433 5435 5437 5439 5441 5443 5447 5449 5449 5448 5448 5447 5446 5445 5444
5420 5417 5414 5411 5408 5406 5404 5402 5399 5398 5398 5397 5397 5397 5397 5397 5397 5397 5399 5401 5405 5408 5411 5415 5419 5423 5427 5431 5433 5435 5438 5441 5443 5445 5448 5449 5449 5448 5448 5448 5448 5447 5445